Wind_Speed
3 4 6 7 8 10 11 12 10 5 8 7 18 15 28 29 28 27 30 34 31 31 32 35 37 37 36 36 36 35 35 34 34 35 34 34 35 35
4 6 8 10 11 13 14 14 14 16 8 17 23 26 28 28 28 31 33 31 31 34 36 36 36 36 34 35 36 36 36 36 36 35 36 35 35 35
5 8 9 10 13 13 14 17 19 20 14 24 26 27 27 28 33 29 32 32 34 32 34 34 32 33 36 37 37 38 38 38 37 37 36 36 36 36
7 9 11 11 13 15 16 17 17 20 23 22 24 25 26 27 31 35 31 31 31 35 30 32 35 36 36 37 36 37 36 36 36 36 35 36 37 38
8 10 12 14 16 16 17 16 17 21 23 22 25 24 28 29 31 29 30 31 32 28 33 30 38 36 35 38 35 36 37 38 36 36 36 35 35 36
10 11 13 15 17 16 17 21 19 21 22 22 22 25 25 27 26 26 29 26 29 31 35 33 32 35 35 34 36 37 35 34 34 33 33 33 34 34
11 13 14 13 14 18 19 18 21 22 22 20 22 26 26 16 25 25 24 29 34 33 32 26 30 35 37 35 34 34 33 33 34 35 35 35 35 35
13 14 15 16 16 16 18 20 21 24 22 24 24 21 28 25 23 23 28 27 13 26 23 33 33 36 34 33 33 35 37 35 34 35 36 36 36 36
14 16 16 16 17 20 19 20 21 22 25 30 29 27 29 28 30 27 29 28 26 31 28 29 33 35 34 34 35 36 36 38 35 32 31 31 32 34
15 16 17 17 18 20 23 21 24 26 28 27 29 30 27 32 32 31 29 29 30 31 26 20 32 34 39 35 35 39 35 31 29 30 31 34 35 35
15 15 16 19 19 20 22 27 26 24 23 27 28 29 30 32 31 29 26 22 20 27 27 25 30 29 37 39 35 26 28 30 34 32 32 33 34 34
16 18 17 18 20 21 25 26 23 24 30 29 26 33 29 27 27 26 28 23 23 22 24 17 26 21 10 24 22 33 33 30 32 33 33 33 33 34
18 20 20 20 22 25 27 26 25 27 25 24 27 26 27 27 26 26 25 25 26 28 38 29 26 27 19 25 25 30 34 38 32 35 34 33 31 30
21 21 22 22 26 26 25 23 23 24 23 24 23 25 25 26 28 29 33 33 34 37 41 37 28 29 28 23 17 31 34 36 34 34 33 35 34 32
20 21 24 25 26 23 21 21 20 22 22 21 22 25 26 31 34 31 32 32 34 37 36 35 34 34 30 27 25 33 33 33 35 31 29 32 34 33
23 23 22 25 19 19 21 20 21 21 21 22 25 28 30 29 30 28 28 30 29 32 31 29 29 31 31 30 30 31 34 21 34 34 33 34 36 33
23 23 24 21 21 20 19 20 21 21 22 24 25 26 28 28 29 29 28 27 23 26 30 32 30 30 33 34 31 34 31 32 33 33 31 30 34 33
20 17 18 18 17 19 20 22 23 24 24 25 27 26 26 27 28 29 26 25 24 26 26 30 30 31 28 24 26 30 28 29 31 30 30 26 29 32
16 19 19 18 18 20 21 23 25 27 28 26 26 27 28 26 27 27 26 25 25 25 28 29 26 22 13 14 30 20 22 29 30 28 26 26 26 32
17 19 20 20 20 21 23 24 27 28 27 27 27 27 27 25 26 25 25 24 24 25 26 27 25 22 12 15 17 40 30 27 24 26 27 28 31 33
20 20 20 21 22 23 25 27 27 29 28 28 29 27 28 26 26 26 26 29 29 24 20 24 29 32 33 31 15 20 31 32 30 28 29 24 16 17
20 21 22 22 24 25 28 28 29 29 28 28 28 28 29 27 26 26 26 25 25 25 27 27 29 29 24 18 12 18 27 32 34 30 29 25 15 7
22 23 24 26 27 28 27 28 28 30 29 29 30 30 29 27 28 27 26 26 26 25 22 25 27 24 23 19 22 19 24 27 27 26 27 26 26 23
Wind_Direction
241 263 282 291 285 290 289 292 284 297 303 300 311 300 307 308 309 308 306 306 302 300 301 300 299 298 298 297 295 293 291 289 285 283 282 278 277 275
254 270 279 286 286 288 294 293 291 289 286 297 300 303 305 302 303 304 304 302 297 298 301 299 299 298 298 295 294 292 290 288 287 285 283 281 280 278
264 282 285 289 295 293 291 295 293 290 283 295 298 303 303 301 307 306 304 300 298 297 299 298 297 297 298 295 295 293 290 288 287 285 283 282 281 278
278 284 290 294 290 296 301 299 297 300 297 296 305 307 306 307 304 301 299 299 297 298 296 298 297 298 296 295 295 292 289 288 287 286 285 281 282 280
289 293 293 292 293 297 298 298 304 304 299 302 302 303 301 301 298 299 302 298 297 297 299 297 297 295 296 297 294 293 292 291 288 285 283 282 280 278
296 296 295 295 293 294 295 298 297 294 296 293 294 298 297 299 296 302 300 299 302 299 297 297 296 295 296 297 295 294 292 290 288 285 282 281 279 277
298 300 298 298 297 296 297 303 303 300 293 291 296 301 297 301 302 300 297 302 297 297 296 294 297 296 293 294 294 295 295 292 289 287 284 282 280 279
307 305 299 300 299 300 301 300 298 304 310 307 301 299 300 301 301 300 296 297 296 303 299 298 297 292 292 291 294 296 295 294 291 288 284 280 279 278
310 302 299 298 300 301 298 296 294 296 301 302 300 296 296 300 303 297 289 285 286 297 298 292 296 292 295 294 295 295 294 294 292 288 283 281 280 278
308 306 304 308 306 304 303 305 308 307 308 302 295 297 299 302 299 297 297 295 292 295 297 287 297 293 296 294 293 293 293 294 293 291 287 285 283 279
319 319 317 313 312 306 311 314 310 304 303 302 298 298 300 301 301 305 301 303 296 295 297 290 293 296 296 292 291 291 290 293 294 292 291 288 285 283
321 318 317 313 312 311 311 310 306 308 310 309 306 308 309 304 302 299 299 295 293 298 300 299 299 304 301 289 294 295 297 295 294 293 291 288 285 286
310 315 316 314 312 311 310 312 311 307 308 309 307 303 302 301 300 300 298 292 293 289 291 299 295 292 278 293 293 295 295 296 294 293 293 290 289 285
318 317 317 313 314 313 311 310 309 312 315 310 301 299 300 300 302 301 298 294 288 280 291 290 281 285 286 286 291 298 295 294 292 289 290 291 292 289
316 314 316 316 315 313 315 315 316 317 314 305 300 299 302 303 305 303 301 298 295 293 290 288 279 281 278 279 285 290 296 298 293 286 291 289 286 285
316 317 320 319 318 318 318 319 318 317 311 306 302 303 305 306 303 302 298 301 296 296 298 296 291 285 279 278 281 284 288 285 290 291 291 289 288 286
319 322 324 327 327 323 321 319 317 315 313 309 305 304 303 303 300 301 297 295 291 297 301 306 304 295 280 275 278 280 284 285 287 288 289 289 290 285
320 323 322 323 318 320 319 316 313 314 311 307 305 301 298 299 299 301 302 298 292 296 298 300 302 301 298 288 271 273 280 280 285 292 292 284 285 287
334 329 323 320 317 318 314 311 309 310 308 304 301 299 297 296 301 301 300 298 296 297 295 297 299 300 301 303 309 298 279 288 293 291 289 284 282 287
329 325 322 321 318 315 311 308 308 308 308 306 302 302 301 298 299 299 300 299 299 299 301 306 302 298 297 303 303 303 307 296 295 293 295 293 286 288
329 325 321 318 316 312 308 307 307 307 308 306 304 302 303 302 298 298 299 303 307 304 300 303 304 309 306 300 294 302 310 314 308 299 300 299 298 296
326 321 318 316 313 310 309 308 307 307 307 306 305 305 304 301 298 299 300 300 301 301 298 300 311 313 309 305 300 303 309 314 318 315 310 301 293 297
323 320 316 315 314 313 311 308 306 305 306 306 305 305 304 304 305 301 299 300 300 301 314 315 316 320 316 314 313 309 312 316 319 320 317 328 329 330
Height
802 803 804 805 805 805 805 805 804 800 792 788 788 787 786 783 780 777 774 771 768 764 760 756 752 749 745 741 738 735 732 729 727 724 721 719 717 715
800 800 801 802 802 802 802 802 801 798 793 788 786 784 782 779 776 773 769 765 761 757 753 749 744 741 737 733 729 726 723 719 716 713 711 709 706 705
797 797 798 799 799 799 798 798 796 795 790 784 783 780 777 774 770 767 763 758 754 750 746 741 737 734 729 725 721 717 713 710 706 704 701 699 696 695
794 794 794 795 795 795 794 793 792 791 788 780 779 776 773 770 765 760 756 751 747 742 739 735 730 726 721 717 713 708 704 700 697 694 691 689 687 685
791 791 791 791 791 790 790 790 788 786 784 779 774 773 769 765 758 754 749 744 740 736 733 729 723 718 713 709 704 699 695 691 687 684 682 679 677 675
788 787 787 787 787 787 786 785 783 780 778 775 771 767 764 758 754 749 742 739 733 729 725 721 715 710 704 700 695 690 686 682 678 674 671 669 667 665
784 784 784 784 784 783 781 779 777 775 772 769 766 761 756 752 749 744 738 732 726 721 714 711 706 700 695 690 685 680 677 673 668 664 661 658 656 654
781 781 781 780 779 778 777 776 774 771 768 764 759 755 751 748 744 740 734 727 714 716 709 703 699 690 686 681 677 672 667 663 658 655 651 648 645 643
779 779 778 777 775 774 772 771 769 767 764 760 754 751 745 741 737 732 726 720 713 708 705 695 690 681 677 672 668 662 658 653 648 645 641 639 636 633
777 776 774 773 771 769 766 764 761 759 757 754 749 744 740 735 731 725 718 713 706 701 699 687 681 673 666 662 657 652 647 644 640 636 632 629 625 621
775 773 771 769 767 764 761 757 754 752 750 747 742 737 733 729 725 719 713 708 697 693 690 685 675 666 658 649 644 642 638 635 631 626 622 618 614 610
771 770 768 766 763 761 758 754 749 746 742 737 733 729 725 722 719 716 710 703 696 685 683 680 672 668 649 640 636 634 626 624 620 616 611 607 603 600
768 766 765 763 760 757 753 749 745 741 737 733 728 724 720 715 711 708 704 700 692 684 675 676 666 661 657 637 627 624 620 610 608 603 598 594 591 589
766 763 760 758 755 751 748 744 741 736 732 729 725 720 715 709 704 700 695 691 685 678 669 667 659 654 646 636 622 614 610 605 600 592 588 582 578 575
763 760 757 754 751 747 744 740 736 733 730 725 720 714 709 703 697 692 686 681 674 667 661 657 652 645 640 630 620 609 599 594 590 584 579 574 568 563
759 755 753 750 747 744 740 736 733 730 726 721 715 709 703 697 691 687 680 673 667 656 652 648 643 638 629 622 615 602 595 589 580 575 570 562 555 552
754 751 749 746 743 739 736 733 729 725 720 716 711 705 698 693 686 681 675 668 662 652 642 636 632 627 620 614 604 593 586 578 571 565 560 552 544 539
752 750 747 744 742 738 734 730 726 720 716 711 706 701 695 689 681 674 670 663 655 646 639 630 623 614 605 600 596 585 577 569 562 556 551 543 530 521
752 749 745 742 739 735 732 728 721 716 712 707 702 696 690 684 678 670 663 656 648 641 633 625 618 611 600 587 577 577 569 560 553 545 539 531 521 510
750 747 743 740 736 733 729 724 718 713 708 703 697 691 684 679 671 664 657 651 644 635 626 620 613 605 598 587 573 559 559 553 545 534 525 518 510 502
746 744 741 737 733 730 726 720 715 709 704 698 691 685 679 673 665 659 653 646 639 631 622 613 606 599 591 581 571 559 548 544 538 528 518 509 499 490
745 742 738 734 731 726 721 716 711 704 698 692 686 680 673 668 661 654 648 641 633 625 617 608 601 593 585 578 567 556 544 534 527 519 513 506 497 485
743 739 735 731 727 722 717 712 707 700 694 688 682 675 669 663 656 649 643 636 628 620 613 604 596 589 581 573 564 553 543 532 522 513 504 498 491 483